Regional Weather Roundup
Issued by NWS

Home | Current Version | Previous Version | Graphics & Text | Print | Product List | Glossary On
Versions: 1 2 3 4 5 6 7 8 9 10 11 12 13 14 15 16 17 18 19 20 21 22 23 24 25 26 27 28 29 30 31 32 33 34 35 36 37 38 39 40 41 42 43 44 45 46 47 48 49 50
000
ASUS43 KFSD 052102
RWRSD

WEATHER ROUNDUP FOR SOUTH DAKOTA
NATIONAL WEATHER SERVICE SIOUX FALLS SD
400 PM CDT THU MAY 05 2016

NOTE: "FAIR" INDICATES FEW OR NO CLOUDS BELOW 12,000 FEET WITH NO
SIGNIFICANT WEATHER AND/OR OBSTRUCTIONS TO VISIBILITY.


SDZ001>005-009-010-012>017-052200-
NORTHWEST AND NORTH CENTRAL SOUTH DAKOTA

CITY           SKY/WX    TMP DP  RH WIND       PRES   REMARKS
BUFFALO          N/A     86  38  18 S8        29.82F
FAITH            N/A     81  50  33 SW8       29.87F
MOBRIDGE       SUNNY     88 N/A N/A S18G25    29.82F
$$

SDZ012>016-024>037-041>051-057-063-072>074-052200-
SOUTHWEST AND SOUTH CENTRAL SOUTH DAKOTA

CITY           SKY/WX    TMP DP  RH WIND       PRES   REMARKS
RAPID CTY ARPT SUNNY     82  45  27 SE10      29.90F
PIERRE         SUNNY     87  49  26 S21       29.85F
CUSTER         CLOUDY    77  25  14 SW9       30.02F
PHILIP         SUNNY     87  47  24 S8        29.84F
PINE RIDGE     SUNNY     85  37  18 W10       29.92F
WINNER         LGT RAIN  86  48  26 S13       29.91F
$$

SDZ004>011-016>023-039-040-052200-
NORTHEAST SOUTH DAKOTA

CITY           SKY/WX    TMP DP  RH WIND       PRES   REMARKS
ABERDEEN       SUNNY     89  35  14 SW18G25   29.86F
WATERTOWN      SUNNY     82  43  25 SW15      29.93F
BROOKINGS      SUNNY     80  42  25 SW14G21   29.95F
SISSETON         N/A     85  41  21 W13G22    29.87F
$$

SDZ017-020-022-023-036>040-048>070-052200-
SOUTHEAST SOUTH DAKOTA

CITY           SKY/WX    TMP DP  RH WIND       PRES   REMARKS
SIOUX FALLS    MOSUNNY   75  49  39 S10       29.98F
HURON          SUNNY     83  42  23 S16       29.91F
MITCHELL       SUNNY     82  47  29 S12       29.94F
YANKTON        SUNNY     81  43  26 SW9       29.96F
$$

ABBREVIATIONS USED IN REMARKS
   TC - TEMPERATURE IN CELSIUS
  WCI - WIND CHILL INDEX
   HX - HEAT INDEX
  VSB - VISIBILITY




USA.gov is the U.S. government's official web portal to all federal, state and local government web resources and services.